This is the latest recevied weather packets stored in our database for station/object OE3TEC-15. If no packets are shown the sender has not sent any weather packets the latest 10 day(s).
| Time | Temp. | Humidity | Pressure | Rain* | Wind** | Luminosity | Snow |
|---|---|---|---|---|---|---|---|
| 1777956437 | 8.89° C | 83% | 1010.5 hPa | 0 mm | - | 57 W/m² | - |
| 1777955830 | 8.33° C | 84% | 1010.3 hPa | 0 mm | - | 44 W/m² | - |
| 1777955223 | 7.78° C | 85% | 1010.3 hPa | 0 mm | - | 30 W/m² | - |
| 1777954615 | 7.22° C | 85% | 1010.3 hPa | 0 mm | - | 25 W/m² | - |
| 1777954008 | 7.22° C | 85% | 1010.4 hPa | 0 mm | - | 20 W/m² | - |
| 1777953402 | 7.22° C | 85% | 1010.2 hPa | 0 mm | - | 14 W/m² | - |
| 1777952795 | 7.22° C | 86% | 1010.4 hPa | 0 mm | - | 7 W/m² | - |
| 1777952187 | 6.67° C | 86% | 1010.3 hPa | 0 mm | - | 3 W/m² | - |
| 1777951580 | 7.22° C | 84% | 1010.3 hPa | 0 mm | - | 2 W/m² | - |
| 1777950973 | 6.67° C | 85% | 1010.3 hPa | 0 mm | - | 0 W/m² | - |
| 1777950365 | 7.22° C | 84% | 1010.2 hPa | 0 mm | - | 0 W/m² | - |
| 1777949758 | 7.22° C | 83% | 1010.4 hPa | 0 mm | - | 0 W/m² | - |
| 1777949151 | 7.22° C | 83% | 1010.3 hPa | 0 mm | - | 0 W/m² | - |
| 1777948543 | 7.78° C | 83% | 1010.3 hPa | 0 mm | - | 0 W/m² | - |
| 1777947936 | 7.78° C | 82% | 1010.6 hPa | 0 mm | - | 0 W/m² | - |
| 1777947330 | 7.78° C | 81% | 1010.7 hPa | 0 mm | - | 0 W/m² | - |
| 1777946723 | 8.33° C | 81% | 1010.7 hPa | 0 mm | - | 0 W/m² | - |
| 1777946115 | 8.33° C | 81% | 1010.8 hPa | 0 mm | - | 0 W/m² | - |
| 1777945508 | 8.33° C | 79% | 1010.8 hPa | 0 mm | - | 0 W/m² | - |
| 1777944901 | 8.89° C | 78% | 1010.7 hPa | 0 mm | - | 0 W/m² | - |
| 1777944293 | 9.44° C | 76% | 1010.8 hPa | 0 mm | - | 0 W/m² | - |
| 1777943686 | 10° C | 74% | 1010.8 hPa | 0 mm | - | 0 W/m² | - |
| 1777943079 | 10.56° C | 72% | 1010.9 hPa | 0 mm | - | 0 W/m² | - |
| 1777942471 | 11.11° C | 69% | 1011 hPa | 0 mm | - | 0 W/m² | - |
| 1777941864 | 12.22° C | 66% | 1010.8 hPa | 0 mm | - | 0 W/m² | - |
* Rain latest hour (hover to see other rain measurements)
** Current wind speed in m/s (hover to see current wind gust speed)